When you browse on this site, cookies collect data to enhance your experience and personalize the content and advertising you see.
Visit our Privacy Policy to learn more. By continuing to use the site, you agree to this use of cookies and data.
  • In Spain
  • List of Countries
  • For 7 days
  • Water Temperature
  • Weather Map
  • Weather Widgets
  • user-avatar
    Login

    Hourly Weather Newcastle

    Today, 3 June, Wednesday

    Time Temperature Precipitation Wind Pressure Humidity
    00:00 +7°C° 0 mm 5 mps 763 mmHg 72%
    01:00 +7°C° 0 mm 5 mps 763 mmHg 74%
    02:00 +7°C° 0 mm 5 mps 763 mmHg 75%
    03:00 +7°C° 0 mm 5 mps 763 mmHg 76%
    04:00 +8°C° 0 mm 5 mps 763 mmHg 77%
    05:00 +7°C° 0 mm 5 mps 763 mmHg 78%
    06:00 +7°C° 0 mm 5 mps 764 mmHg 79%
    07:00 +7°C° 0 mm 5 mps 764 mmHg 80%
    08:00 +9°C° 0 mm 5 mps 765 mmHg 73%
    09:00 +12°C° 0 mm 5 mps 765 mmHg 67%
    10:00 +13°C° 0 mm 5 mps 766 mmHg 61%
    11:00 +15°C° 0 mm 6 mps 766 mmHg 56%
    12:00 +16°C° 0 mm 7 mps 765 mmHg 52%
    13:00 +17°C° 0 mm 7 mps 765 mmHg 48%
    14:00 +16°C° 0 mm 7 mps 766 mmHg 50%
    15:00 +16°C° 0 mm 7 mps 766 mmHg 53%
    16:00 +15°C° 0 mm 7 mps 767 mmHg 55%
    17:00 +14°C° 0 mm 7 mps 768 mmHg 60%
    18:00 +12°C° 0 mm 7 mps 768 mmHg 64%
    19:00 +10°C° 0 mm 7 mps 769 mmHg 69%
    20:00 +11°C° 0.1 mm 7 mps 770 mmHg 70%
    21:00 +11°C° 0.1 mm 7 mps 770 mmHg 71%
    22:00 +11°C° 0.1 mm 7 mps 771 mmHg 72%
    23:00 +10°C° 0.1 mm 7 mps 771 mmHg 74%

    Tomorrow, 4 June, Thursday

    Time Temperature Precipitation Wind Pressure Humidity
    00:00 +9°C° 0.1 mm 7 mps 771 mmHg 76%
    01:00 +9°C° 0.1 mm 7 mps 771 mmHg 78%
    02:00 +8°C° 0.1 mm 6 mps 771 mmHg 78%
    03:00 +8°C° 0.1 mm 6 mps 771 mmHg 78%
    04:00 +7°C° 0.1 mm 5 mps 771 mmHg 78%
    05:00 +7°C° 0.1 mm 5 mps 772 mmHg 77%
    06:00 +7°C° 0.1 mm 5 mps 772 mmHg 76%
    07:00 +8°C° 0.1 mm 5 mps 772 mmHg 75%
    08:00 +9°C° 0.1 mm 5 mps 772 mmHg 72%
    09:00 +10°C° 0.1 mm 5 mps 773 mmHg 69%
    10:00 +12°C° 0.1 mm 5 mps 773 mmHg 66%
    11:00 +13°C° 0.1 mm 5 mps 772 mmHg 64%
    12:00 +14°C° 0.1 mm 5 mps 772 mmHg 63%
    13:00 +15°C° 0.1 mm 5 mps 771 mmHg 62%
    14:00 +15°C° 0.2 mm 5 mps 771 mmHg 65%
    15:00 +15°C° 0.2 mm 5 mps 771 mmHg 68%
    16:00 +14°C° 0.2 mm 5 mps 771 mmHg 72%
    17:00 +13°C° 0.1 mm 4 mps 771 mmHg 78%
    18:00 +12°C° 0.1 mm 4 mps 772 mmHg 83%
    19:00 +11°C° 0.1 mm 4 mps 772 mmHg 89%
    20:00 +10°C° 0.1 mm 3 mps 772 mmHg 89%
    21:00 +10°C° 0.1 mm 3 mps 772 mmHg 90%
    22:00 +9°C° 0.1 mm 3 mps 773 mmHg 91%
    23:00 +9°C° 0 mm 3 mps 772 mmHg 92%

    Day after tomorrow, 5 June, Friday

    Time Temperature Precipitation Wind Pressure Humidity
    00:00 +9°C° 0 mm 3 mps 772 mmHg 93%
    01:00 +8°C° 0 mm 3 mps 772 mmHg 93%
    02:00 +8°C° 0 mm 3 mps 771 mmHg 94%
    03:00 +7°C° 0 mm 2 mps 771 mmHg 94%
    04:00 +7°C° 0 mm 2 mps 771 mmHg 94%
    05:00 +7°C° 0 mm 2 mps 771 mmHg 94%
    06:00 +7°C° 0 mm 2 mps 771 mmHg 94%
    07:00 +6°C° 0 mm 2 mps 771 mmHg 94%
    08:00 +9°C° 0 mm 2 mps 771 mmHg 85%
    09:00 +12°C° 0 mm 2 mps 771 mmHg 76%
    10:00 +14°C° 0 mm 2 mps 771 mmHg 67%
    11:00 +16°C° 0 mm 2 mps 770 mmHg 61%
    12:00 +17°C° 0 mm 2 mps 769 mmHg 55%
    13:00 +18°C° 0 mm 2 mps 769 mmHg 49%
    14:00 +18°C° 0 mm 2 mps 768 mmHg 53%
    15:00 +17°C° 0 mm 2 mps 768 mmHg 56%
    16:00 +17°C° 0 mm 2 mps 767 mmHg 60%
    17:00 +15°C° 0 mm 2 mps 768 mmHg 65%
    18:00 +14°C° 0 mm 2 mps 768 mmHg 70%
    19:00 +12°C° 0 mm 2 mps 768 mmHg 75%
    20:00 +10°C° 0 mm 2 mps 768 mmHg 75%
    21:00 +10°C° 0 mm 3 mps 768 mmHg 76%
    22:00 +9°C° 0 mm 3 mps 768 mmHg 76%
    23:00 +9°C° 0 mm 3 mps 768 mmHg 78%

    6 June, Saturday

    Time Temperature Precipitation Wind Pressure Humidity
    00:00 +8°C° 0 mm 3 mps 768 mmHg 79%
    01:00 +8°C° 0 mm 3 mps 768 mmHg 80%
    02:00 +8°C° 0 mm 3 mps 767 mmHg 81%
    03:00 +7°C° 0 mm 3 mps 767 mmHg 81%
    04:00 +7°C° 0 mm 3 mps 767 mmHg 82%
    05:00 +7°C° 0 mm 3 mps 767 mmHg 83%
    06:00 +7°C° 0 mm 3 mps 768 mmHg 83%
    07:00 +5°C° 0 mm 3 mps 768 mmHg 83%
    08:00 +9°C° 0 mm 3 mps 768 mmHg 75%
    09:00 +11°C° 0 mm 3 mps 768 mmHg 67%
    10:00 +14°C° 0 mm 2 mps 767 mmHg 59%
    11:00 +16°C° 0 mm 2 mps 767 mmHg 56%
    12:00 +17°C° 0 mm 2 mps 766 mmHg 53%
    13:00 +19°C° 0 mm 1 mps 765 mmHg 49%
    14:00 +18°C° 0 mm 1 mps 765 mmHg 53%
    15:00 +18°C° 0 mm 1 mps 765 mmHg 57%
    16:00 +16°C° 0 mm 1 mps 764 mmHg 61%
    17:00 +14°C° 0 mm 1 mps 765 mmHg 65%
    18:00 +12°C° 0 mm 1 mps 765 mmHg 69%
    19:00 +11°C° 0 mm 1 mps 765 mmHg 73%
    20:00 +10°C° 0 mm 1 mps 765 mmHg 74%
    21:00 +9°C° 0 mm 2 mps 765 mmHg 75%
    22:00 +8°C° 0 mm 2 mps 765 mmHg 76%
    23:00 +8°C° 0 mm 2 mps 765 mmHg 76%

    7 June, Sunday

    Time Temperature Precipitation Wind Pressure Humidity
    00:00 +8°C° 0 mm 3 mps 765 mmHg 77%
    01:00 +7°C° 0 mm 3 mps 765 mmHg 77%
    02:00 +7°C° 0 mm 3 mps 764 mmHg 77%
    03:00 +7°C° 0 mm 3 mps 764 mmHg 76%
    04:00 +7°C° 0 mm 3 mps 764 mmHg 76%
    05:00 +5°C° 0 mm 3 mps 764 mmHg 78%
    06:00 +5°C° 0 mm 3 mps 765 mmHg 81%
    07:00 +4°C° 0 mm 3 mps 765 mmHg 83%
    08:00 +8°C° 0 mm 3 mps 765 mmHg 75%
    09:00 +10°C° 0 mm 3 mps 765 mmHg 66%
    10:00 +12°C° 0 mm 3 mps 765 mmHg 58%
    11:00 +13°C° 0 mm 3 mps 764 mmHg 56%
    12:00 +14°C° 0 mm 4 mps 764 mmHg 55%
    13:00 +17°C° 0 mm 4 mps 764 mmHg 53%
    14:00 +14°C° 0.4 mm 5 mps 764 mmHg 63%
    15:00 +13°C° 0.4 mm 6 mps 764 mmHg 72%
    16:00 +11°C° 0.4 mm 7 mps 764 mmHg 82%
    17:00 +10°C° 0.1 mm 7 mps 765 mmHg 83%
    18:00 +10°C° 0.1 mm 7 mps 766 mmHg 84%
    19:00 +9°C° 0.1 mm 7 mps 767 mmHg 85%
    20:00 +8°C° 0.1 mm 6 mps 767 mmHg 84%
    21:00 +8°C° 0.1 mm 6 mps 767 mmHg 84%
    22:00 +7°C° 0.1 mm 6 mps 767 mmHg 83%
    23:00 +7°C° 0.4 mm 6 mps 768 mmHg 83%

    8 June, Monday

    Time Temperature Precipitation Wind Pressure Humidity
    00:00 +8°C° 0.4 mm 5 mps 768 mmHg 83%
    01:00 +8°C° 0.4 mm 5 mps 768 mmHg 82%
    02:00 +8°C° 0.5 mm 5 mps 768 mmHg 81%
    03:00 +9°C° 0.5 mm 5 mps 768 mmHg 81%
    04:00 +9°C° 0.5 mm 5 mps 768 mmHg 80%
    05:00 +9°C° 0.5 mm 5 mps 769 mmHg 80%
    06:00 +9°C° 0.5 mm 5 mps 770 mmHg 80%
    07:00 +9°C° 0.5 mm 5 mps 770 mmHg 81%
    08:00 +9°C° 0.3 mm 5 mps 770 mmHg 79%
    09:00 +10°C° 0.3 mm 5 mps 771 mmHg 78%
    10:00 +10°C° 0.3 mm 5 mps 771 mmHg 77%
    11:00 +13°C° 0.2 mm 5 mps 771 mmHg 75%
    12:00 +14°C° 0.2 mm 5 mps 770 mmHg 73%
    13:00 +15°C° 0.2 mm 5 mps 770 mmHg 71%
    14:00 +15°C° 0.3 mm 5 mps 770 mmHg 74%
    15:00 +14°C° 0.3 mm 5 mps 770 mmHg 76%
    16:00 +14°C° 0.3 mm 5 mps 770 mmHg 79%
    17:00 +13°C° 0.2 mm 5 mps 771 mmHg 82%
    18:00 +12°C° 0.2 mm 4 mps 772 mmHg 85%
    19:00 +12°C° 0.2 mm 4 mps 772 mmHg 88%
    20:00 +12°C° 0.2 mm 4 mps 772 mmHg 89%
    21:00 +12°C° 0.2 mm 3 mps 773 mmHg 89%
    22:00 +12°C° 0.2 mm 3 mps 773 mmHg 89%
    23:00 +12°C° 0.2 mm 3 mps 773 mmHg 89%
    Show more